Location: Benton Farm Airport
(35.0989°N, 76.6289°W)
Time: 03:05:20
(UTC+00:00)

Daily predictions for brighter satellites

Satellite Brightness Start Highest point End
(mag) Time Altitude Azimuth Time Altitude Azimuth Time Altitude Azimuth
CSL-04 Rocket 4.2 00:04:07 10° S 00:09:26 59° WSW 00:14:42 10° NNW
Cosmos 1151 Rocket 3.8 00:07:21 10° SSW 00:11:34 51° W 00:13:04 34° NNW
Cosmos 1980 Rocket 2.1 00:09:53 10° SSW 00:15:31 83° WNW 00:16:22 66° N
YAOGAN 1 4.2 00:17:13 10° SSW 00:21:08 34° W 00:25:05 10° NNW
Cosmos 2227 Rocket 3.4 00:18:18 10° NW 00:23:33 41° WSW 00:28:48 10° S
Cosmos 2297 Rocket 3.6 00:18:48 10° NW 00:23:57 37° WSW 00:29:05 10° S
Centaur D-1A AC-31 2.8 00:22:40 10° SW 00:24:36 28° SSW 00:24:36 28° SSW
Centaur D-1AR AC-36 4.4 00:05:45 10° WSW 00:27:08 28° S 00:29:48 24° SSE
Lacrosse 4 Rocket 4.1 00:38:25 10° W 00:40:37 14° NW 00:41:02 14° NW
USA 215 4.1 00:46:49 37° N 00:46:49 37° N 00:50:55 10° NW
ATLAS 5 CENTAUR R/B 4.3 01:04:33 10° WNW 01:09:45 27° WSW 01:12:49 20° SSW
Cosmos 2082 Rocket 4.0 08:28:39 27° ENE 08:28:39 27° ENE 08:31:52 10° NE
NOSS 3-1 (A) 4.5 08:43:26 55° SSE 08:43:26 55° SSE 08:50:03 10° SSE
Lacrosse 5 3.9 08:54:16 22° NE 08:54:16 22° NE 08:56:00 10° NE
Milstar 3 4.0 08:54:03 39° S 08:54:03 39° S 08:59:58 10° SE
ATLAS CENTAUR R/B 4.4 08:51:12 64° WSW 08:53:23 77° NW 09:19:16 10° NE
Milstar 3 Cent rocket 4.3 09:01:02 33° SSW 09:01:02 33° SSW 09:06:37 10° SSE
CZ-2C R/B 3.6 08:55:49 10° NNE 09:06:29 - S 08:59:56 37° E
Lacrosse 4 Rocket 4.1 09:11:08 13° SSE 09:11:08 13° SSE 09:11:36 10° SSE
Cosmos 2123 Rocket 4.2 09:05:57 20° N 09:10:18 67° E 09:16:27 10° SSE
Cosmos 839 Rocket 4.3 09:08:55 51° SSW 09:11:01 83° ESE 09:17:33 10° NNE
Cosmos 1980 Rocket 4.1 09:08:03 12° N 09:12:24 27° ENE 09:17:08 10° ESE
Cosmos 1605 Rocket 4.2 09:12:18 10° S 09:18:30 69° E 09:24:37 10° NNE
SJ 16-02 3.4 09:15:04 10° SSE 09:18:43 26° E 09:22:23 10° NE
Gbstr 26 Del rocket 4.5 09:28:50 27° NE 09:28:50 27° NE 09:30:36 10° NE
Cosmos 2369 3.7 09:28:44 45° N 09:30:33 78° ENE 09:36:17 10° SSE
OAO 1 Rocket 4.4 09:35:39 68° SSW 09:35:51 69° SSW 09:41:11 10° ESE
PAYLOAD A 4.0 09:31:00 10° N 09:43:15 - SSW 09:36:14 70° WNW
SL-27 R/B 4.2 09:38:33 27° NE 09:38:33 27° NE 09:40:23 10° NNE
OAO 3 Rocket 3.2 09:38:33 65° S 09:38:48 67° SSE 09:43:32 10° E
Meteor 1-27 4.3 09:33:57 10° N 09:39:49 83° E 09:45:40 10° S
OAO 2 Rocket 3.2 09:43:11 69° WSW 09:43:48 83° S 09:48:53 10° E
STARLINK-80 3.7 09:46:10 60° NE 09:46:10 60° NE 09:49:21 10° NE
CZ-3B R/B 3.4 09:45:44 24° SSW 09:46:50 27° SSE 09:53:44 10° ESE
Sakura Rocket 4.5 09:46:46 30° SW 09:48:46 39° S 09:53:13 10° ESE
Cosmos 1680 Rocket 4.1 09:44:12 11° N 09:49:11 57° ENE 09:54:24 10° SSE
ALOS 4.4 09:45:51 10° NE 09:49:51 27° E 09:53:49 10° SSE
Cosmos 2278 3.7 09:47:02 22° NNW 09:50:51 83° ENE 09:56:34 10° SSE
deb Kosmos-1763 4.0 09:51:22 78° SE 09:51:31 80° ESE 09:55:13 10° NNE
Cosmos 1697 Rocket 2.5 09:50:37 35° NNW 09:53:02 73° WSW 09:58:36 10° SSE
Atlas Centaur 2 2.9 09:54:59 19° S 09:54:59 19° S 09:57:16 10° SSE
PSLV R/B 4.3 09:52:35 10° NNE 09:56:24 61° E 10:00:18 10° S
STARLINK-48 3.3 09:59:52 62° SW 10:00:28 87° NW 10:04:22 10° NE
CZ-4B R/B 4.1 09:56:42 10° N 10:01:07 58° WNW 10:05:29 10° SSW
CZ-3B R/B 3.9 10:01:32 10° S 10:02:43 11° S 10:03:46 10° SSE
Cosmos 990 Rocket 3.8 09:59:32 10° SSW 10:04:41 81° WNW 10:09:53 10° NNE
Cosmos 2082 Rocket 2.9 10:10:36 31° WNW 10:10:52 31° WNW 10:15:54 10° N
In-Cosmos 22 Rocket 4.2 10:05:52 10° S 10:11:09 78° E 10:16:35 10° NNE
Cosmos 923 Rocket 4.0 10:09:29 18° NNW 10:13:15 61° WSW 10:18:23 10° S
ISS -3.2 10:14:25 40° SW 10:14:27 40° SW 10:17:36 10° SSE
Cosmos 2058 3.0 10:13:21 10° SSW 10:17:26 53° W 10:21:35 10° N
Cosmos 1076 Rocket 3.9 10:14:22 10° SSW 10:18:25 38° W 10:22:29 10° N
Cosmos 2100 Rocket 3.9 10:19:11 10° S 10:25:24 86° W 10:31:37 10° N
Cosmos 1898 Rocket 3.8 10:25:47 10° SW 10:30:42 42° WNW 10:35:42 10° N
Cosmos 1408 Rocket 4.4 10:26:50 10° S 10:30:59 51° E 10:35:12 10° NNE
Centaur D AC-28 3.9 10:27:03 17° WSW 10:31:18 51° S 10:56:57 10° ESE
Cosmos 1833 Rocket 4.4 10:33:07 13° NW 10:33:07 13° NW 10:34:55 10° NNW
Lacrosse 5 3.4 10:33:30 16° NW 10:34:29 17° NNW 10:37:48 10° N
ASTEX 1 4.0 10:30:09 10° SSW 10:34:36 34° W 10:39:06 10° NNW
Okean 3 Rocket 3.6 10:30:27 10° SSW 10:34:55 63° W 10:39:25 10° N
STARLINK-49 4.4 10:32:09 10° SSW 10:36:10 52° SE 10:40:12 10° NE
Cosmos 2221 3.8 10:36:54 20° W 10:37:18 20° W 10:40:31 10° SW
Cosmos 1802 Rocket 4.1 10:31:20 10° S 10:37:45 89° ESE 10:44:14 10° N
STARLINK-27 4.4 10:33:45 10° SSW 10:37:47 55° SE 10:41:50 10° NE
CZ-2C R/B 3.6 10:34:52 10° NNW 10:38:14 19° WNW 10:39:17 18° W
NOSS 3-3 (A) 4.3 10:33:08 10° WSW 10:38:35 40° NW 10:44:35 10° NNE
NOSS 3-3 (C) 4.3 10:33:15 10° WSW 10:38:41 40° NW 10:44:42 10° NNE
Cosmos 1356 Rocket 3.8 10:34:36 10° NNW 10:38:41 43° W 10:42:44 10° SSW
STARLINK-74 4.3 10:35:24 10° SSW 10:39:27 57° SE 10:43:31 10° NE
Abrixas rocket 3.3 10:38:09 10° SSW 10:40:58 39° SE 10:43:49 10° ENE
STARLINK-39 4.2 10:37:03 10° SSW 10:41:07 59° SE 10:45:12 10° NE
Cosmos 1766 Rocket 3.4 10:38:19 10° SSW 10:42:36 67° W 10:46:55 10° N
STARLINK 4.1 10:38:41 10° SSW 10:42:46 62° SE 10:46:52 10° NE
SJ-12 4.1 10:39:17 10° N 10:43:19 51° WNW 10:47:19 10° SSW
STARLINK-42 4.0 10:39:30 10° SW 10:43:35 67° SE 10:47:42 10° NE
STARLINK-21 4.0 10:40:17 10° SW 10:44:22 65° SE 10:48:29 10° NE
Cosmos 1937 Rocket 3.7 10:39:29 10° SW 10:44:23 44° WNW 10:49:18 10° N
Shenzhou-11 Module 3.9 10:43:16 13° NNW 10:44:25 16° N 10:46:12 10° NE
Cosmos 2061 Rocket 4.0 10:40:19 10° S 10:46:36 88° W 10:52:52 10° N
STARLINK-45 3.7 10:43:49 10° SW 10:47:56 80° SE 10:52:05 10° NE
SL-16 R/B 3.1 10:42:27 10° N 10:47:57 49° ENE 10:53:25 10° SE
COSMO-SKYMED 1 2.7 10:44:42 10° S 10:48:55 53° W 10:53:11 10° NNW
Cosmos 2360 Rocket 4.5 10:46:05 10° N 10:50:26 22° ENE 10:54:43 10° ESE
STARLINK-76 3.8 10:46:56 10° SW 10:51:02 76° SE 10:55:11 10° NE
STARLINK 3.7 10:48:38 10° SW 10:52:45 79° SE 10:56:54 10° NE
STARLINK-32 3.7 10:50:15 10° SW 10:54:23 82° SE 10:58:32 10° NE
STARLINK-40 3.7 10:51:53 10° SW 10:56:01 85° SE 11:00:10 10° NE
Cosmos 1980 Rocket 2.8 10:51:14 10° NW 10:56:26 37° WSW 11:01:35 10° S
SJ 16-02 2.5 10:53:49 10° WSW 10:57:13 22° WNW 11:00:38 10° NNW
NOAA 6 4.0 10:52:28 10° N 10:57:34 72° WNW 11:02:38 10° SSW
STARLINK-44 3.6 10:53:35 10° SW 10:57:43 89° SE 11:01:53 10° NE
Cosmos 2322 Rocket 3.1 10:53:32 10° N 10:59:03 52° ENE 11:04:35 10° SE
Cosmos 1484 Rocket 4.0 10:55:55 10° NNW 10:59:04 23° WNW 11:02:12 10° WSW
STARLINK-36 3.6 10:55:15 10° SW 10:59:23 88° NW 11:03:32 10° NE
USA 267 3.4 10:54:39 10° NE 11:01:12 81° SE 11:07:45 10° SW
Cosmos 2173 Rocket 4.3 10:58:06 10° SSW 11:04:03 44° W 11:09:59 10° N
Cosmos 1892 3.7 11:01:31 10° SW 11:04:39 24° WNW 11:07:47 10° NNW
Cosmos 2151 3.7 11:01:40 10° SW 11:05:29 32° WNW 11:09:22 10° NNW
STARLINK-35 3.6 11:01:51 10° SW 11:05:58 77° NW 11:10:07 10° NE
Cosmos 1408 2.8 11:04:02 10° SSW 11:07:36 46° W 11:11:10 10° N
STARLINK-51 3.6 11:03:33 10° SW 11:07:41 74° NW 11:11:49 10° NE
ATLAS CENTAUR R/B 1.7 11:04:05 10° SSW 11:08:59 78° WNW 11:13:52 10° NNE
STARLINK-30 3.6 11:05:13 10° SW 11:09:21 71° NW 11:13:29 10° NE
Cosmos 1606 4.3 11:06:19 10° N 11:09:52 37° E 11:13:25 10° SSE
STARLINK-33 3.6 11:06:54 10° SW 11:11:01 68° NW 11:15:09 10° NE
STARLINK-50 3.6 11:08:35 10° SW 11:12:42 66° NW 11:16:49 10° NE
Okean O Rocket 2.1 11:09:35 10° N 11:13:36 38° WNW 11:17:36 10° SW
Radarsat Rocket 4.0 11:07:47 10° NNE 11:13:37 84° WNW 11:19:36 10° SSW
COSMOS 2487 2.4 11:11:28 10° SSW 11:14:53 61° WNW 11:18:19 10° N
ATLAS 2AS CENTAUR R/B 3.4 11:07:47 10° NNW 11:15:15 60° NE 11:22:02 10° SE
STARLINK-56 3.7 11:11:55 10° WSW 11:16:00 61° NW 11:20:06 10° NE
